Regional Weather Roundup
Issued by NWS Cleveland, OH

Home | Current Version | Previous Version | Graphics & Text | Print | Product List | Glossary On
Versions: 1 2 3 4 5 6 7 8 9 10 11 12 13 14 15 16 17 18 19 20 21 22 23 24 25 26 27 28 29 30 31 32 33 34 35 36 37 38 39 40 41 42 43 44 45 46 47 48 49 50
000
ASUS41 KCLE 101012
RWRCLE
OHIO REGIONAL WEATHER ROUNDUP
NATIONAL WEATHER SERVICE WILMINGTON, OH
500 AM EST SAT DEC 10 2016

NOTE: "FAIR" INDICATES FEW OR NO CLOUDS BELOW 12,000 FEET WITH NO
SIGNIFICANT WEATHER AND/OR OBSTRUCTIONS TO VISIBILITY.

OHZ001>008-015>018-024>027-034-035-043-044-101100-
   NORTHWEST OHIO

CITY           SKY/WX    TMP DP  RH WIND       PRES   REMARKS
DEFIANCE       CLOUDY    22  13  68 SW6       30.48F WCI  14
FINDLAY        CLOUDY    22  12  65 W13       30.47S WCI  10
TOLEDO EXPRESS CLOUDY    22  16  78 W14       30.46S WCI   9
TOLEDO EXEC    CLOUDY    24  16  71 W13       30.46F WCI  12
LIMA           FAIR      20  15  81 W14       30.48S WCI   7
$$

OHZ009>014-019>023-028>033-038-089-101100-
   NORTHEAST OHIO

CITY           SKY/WX    TMP DP  RH WIND       PRES   REMARKS
CLE-HOPKINS    CLOUDY    25  16  68 SW15      30.45R WCI  13
CLE-LAKEFRONT  FLURRIES  26  18  71 SW21      30.42R WCI  12
CUY CO. ARPT   NOT AVBL
LORAIN-ELYRIA  CLOUDY    23  14  68 W12       30.44S WCI  12
ASHTABULA      FLURRIES  23  20  88 SW10      30.37S WCI  12
AKRON-CANTON   FLURRIES  24  17  74 W10       30.42S WCI  14
WOOSTER        CLOUDY    22  15  75 W13       30.44S WCI  10
MANSFIELD      CLOUDY    20  16  84 SW12      30.44R WCI   8
YOUNGSTOWN     CLOUDY    23  15  71 SW12      30.38S WCI  12
$$

OHZ042-051>053-060>062-070>072-077>081-101100-
  SOUTHWEST OHIO

CITY           SKY/WX    TMP DP  RH WIND       PRES   REMARKS
CINC-COVINGTON MOCLDY    20  16  84 SW3       30.53F
CINC-LUNKEN    FAIR      21  17  84 S5        30.57F WCI  15
HAMILTON       FAIR      21  17  84 SW3       30.55F
DAYTON         CLOUDY    22  18  85 SW8       30.50F WCI  12
WRIGHT-PAT AFB FLURRIES  23  20  88 SW7       30.50F WCI  14
DAYTON GENERAL CLOUDY    22  16  78 SW5       30.50F WCI  16
WILMINGTON     CLOUDY    21  16  81 W8        30.50F WCI  11
$$

OHZ036-037-039>041-045>050-054>059-063>069-073>076-082>088-101100-
  CENTRAL AND SOUTHEAST OHIO

CITY           SKY/WX    TMP DP  RH WIND       PRES   REMARKS
COLUMBUS       FLURRIES  24  19  81 SW9       30.50F WCI  14
OSU AIRPORT    CLOUDY    24  16  71 W10       30.49F WCI  14
BOLTON FIELD   FLURRIES  23  19  83 W6        30.51S WCI  16
RICKENBACK AFB   N/A     23  19  83 W9        30.51F WCI  13
NEWARK         LGT SNOW  24  19  81 SW7       30.49S WCI  16
MARION         FAIR      20  15  81 W7        30.48S WCI  11
LANCASTER      FLURRIES  23  18  81 SW9       30.52R WCI  13
ZANESVILLE     CLOUDY    24  18  77 SW8       30.50R WCI  15
NEW PHILLY     CLOUDY    24  18  77 W7        30.47S WCI  16
$$




USA.gov is the U.S. government's official web portal to all federal, state and local government web resources and services.